timestamp,surface_pressure_avg,surface_temp_avg,battery_voltage,lat,long
2021-07-20 00:09:01+00:00,220.743,15.4,12.97,47.84626,-54.09684
2021-07-20 00:19:01+00:00,219.2514,15.38,12.73,47.84626,-54.09684
2021-07-20 00:29:01+00:00,216.1514,15.37,12.73,47.84626,-54.09684
2021-07-20 00:39:01+00:00,214.2181,15.37,12.73,47.84626,-54.09684
2021-07-20 00:49:01+00:00,213.3281,15.3,12.73,47.84626,-54.09684
2021-07-20 00:59:01+00:00,212.9948,15.3,12.73,47.84626,-54.09684
2021-07-20 01:09:01+00:00,212.3248,15.35,12.73,47.84626,-54.09684
2021-07-20 01:19:01+00:00,210.6797,15.3,12.73,47.84626,-54.09684
2021-07-20 01:29:01+00:00,208.9448,15.27,12.73,47.84626,-54.09684
2021-07-20 01:39:01+00:00,206.8265,15.2,12.73,47.84626,-54.09684
2021-07-20 01:49:01+00:00,206.0081,15.26,12.73,47.84626,-54.09684
2021-07-20 01:59:01+00:00,204.6348,15.3,12.73,47.84626,-54.09684
2021-07-20 02:09:01+00:00,202.2031,15.3,12.73,47.84626,-54.09684
2021-07-20 02:19:01+00:00,203.7181,15.34,12.73,47.84626,-54.09684
2021-07-20 02:29:01+00:00,205.7898,15.38,12.73,47.84626,-54.09684
2021-07-20 02:39:01+00:00,205.5598,15.4,12.73,47.84626,-54.09684
2021-07-20 02:49:01+00:00,208.2881,15.4,12.73,47.84626,-54.09684
2021-07-20 02:59:01+00:00,212.4015,15.44,12.73,47.84626,-54.09684
2021-07-20 03:09:01+00:00,212.2697,15.5,12.73,47.84626,-54.09684
2021-07-20 03:19:01+00:00,210.4565,15.57,12.73,47.84626,-54.09684
2021-07-20 03:29:01+00:00,212.8148,15.6,12.73,47.84626,-54.09684
2021-07-20 03:39:01+00:00,217.4031,15.6,12.73,47.84626,-54.09684
2021-07-20 03:49:01+00:00,218.9031,15.52,12.73,47.84626,-54.09684
2021-07-20 03:59:01+00:00,221.0147,15.58,12.73,47.84626,-54.09684
2021-07-20 04:09:01+00:00,223.7081,15.6,12.73,47.84626,-54.09684
2021-07-20 04:19:00+00:00,227.0764,15.66,12.73,47.84626,-54.09684
2021-07-20 04:29:00+00:00,231.7064,15.7,12.73,47.84626,-54.09684
2021-07-20 04:39:00+00:00,238.6714,15.7,12.73,47.84626,-54.09684
2021-07-20 04:49:00+00:00,245.7798,15.71,12.73,47.84626,-54.09684
2021-07-20 04:59:00+00:00,251.8481,15.79,12.73,47.84626,-54.09684
2021-07-20 05:09:00+00:00,257.6931,15.84,12.73,47.84626,-54.09684
2021-07-20 05:19:01+00:00,263.4331,15.9,12.65,47.84626,-54.09684
2021-07-20 05:29:01+00:00,268.6564,15.92,12.65,47.84626,-54.09684
2021-07-20 05:39:01+00:00,276.4764,15.92,12.65,47.84626,-54.09684
2021-07-20 05:49:01+00:00,282.8464,15.8,12.65,47.84626,-54.09684
2021-07-20 05:59:01+00:00,284.903,15.6,12.65,47.84626,-54.09684
2021-07-20 06:09:01+00:00,290.813,15.5,12.65,47.84626,-54.09684
2021-07-20 06:19:00+00:00,299.2513,15.4,12.65,47.84626,-54.09684
2021-07-20 06:29:00+00:00,300.7997,15.4,12.65,47.84626,-54.09684
2021-07-20 06:39:00+00:00,300.0847,15.47,12.65,47.84626,-54.09684
2021-07-20 06:49:00+00:00,306.9313,15.5,12.65,47.84626,-54.09684
2021-07-20 06:59:00+00:00,312.9763,15.5,12.65,47.84626,-54.09684
2021-07-20 07:09:00+00:00,316.7064,15.45,12.65,47.84626,-54.09684
2021-07-20 07:19:01+00:00,318.8879,15.47,12.65,47.84626,-54.09684
2021-07-20 07:29:01+00:00,321.788,15.57,12.65,47.84626,-54.09684
2021-07-20 07:39:01+00:00,323.5996,15.6,12.65,47.84626,-54.09684
2021-07-20 07:49:01+00:00,323.6947,15.62,12.65,47.84626,-54.09684
2021-07-20 07:59:01+00:00,323.7996,15.64,12.65,47.84626,-54.09684
2021-07-20 08:09:01+00:00,328.1729,15.67,12.65,47.84626,-54.09684
2021-07-20 08:19:00+00:00,328.8978,15.7,12.65,47.84626,-54.09684
2021-07-20 08:29:00+00:00,320.5414,15.7,12.65,47.84626,-54.09684
2021-07-20 08:39:00+00:00,317.5714,15.74,12.65,47.84626,-54.09684
2021-07-20 08:49:00+00:00,321.453,15.72,12.65,47.84626,-54.09684
2021-07-20 08:59:00+00:00,321.1746,15.7,12.65,47.84626,-54.09684
2021-07-20 09:09:00+00:00,314.8547,15.7,12.65,47.84626,-54.09684
2021-07-20 09:19:01+00:00,311.0414,15.7,12.65,47.84626,-54.09684
2021-07-20 09:29:01+00:00,311.0214,15.7,12.65,47.84626,-54.09684
2021-07-20 09:39:01+00:00,306.1396,15.7,12.65,47.84626,-54.09684
2021-07-20 09:49:01+00:00,299.0063,15.75,12.65,47.84626,-54.09684
2021-07-20 09:59:01+00:00,291.043,15.78,12.65,47.84626,-54.09684
2021-07-20 10:09:01+00:00,284.46299999999997,15.79,12.65,47.84626,-54.09684
2021-07-20 10:19:01+00:00,278.8597,15.8,12.73,47.84626,-54.09684
2021-07-20 10:29:01+00:00,274.8347,15.8,12.73,47.84626,-54.09684
2021-07-20 10:39:01+00:00,267.0231,15.8,12.73,47.84626,-54.09684
2021-07-20 10:49:01+00:00,259.9064,15.88,12.73,47.84626,-54.09684
2021-07-20 10:59:01+00:00,254.9897,15.9,12.73,47.84626,-54.09684
2021-07-20 11:09:01+00:00,248.9048,15.9,12.73,47.84626,-54.09684
2021-07-20 11:19:01+00:00,241.2347,15.9,12.81,47.84626,-54.09684
2021-07-20 11:29:01+00:00,234.0714,15.89,12.81,47.84626,-54.09684
2021-07-20 11:39:01+00:00,228.0081,15.9,12.81,47.84626,-54.09684
2021-07-20 11:49:01+00:00,224.5514,15.9,12.81,47.84626,-54.09684
2021-07-20 11:59:01+00:00,219.6331,15.9,12.81,47.84626,-54.09684
2021-07-20 12:09:01+00:00,215.918,15.9,12.81,47.84626,-54.09684
2021-07-20 12:19:01+00:00,214.2331,15.9,12.97,47.84626,-54.09684
2021-07-20 12:29:01+00:00,212.8881,15.97,12.97,47.84626,-54.09684
2021-07-20 12:39:01+00:00,208.4448,16.0,12.97,47.84626,-54.09684
2021-07-20 12:49:01+00:00,205.7281,16.1,12.97,47.84626,-54.09684
2021-07-20 12:59:01+00:00,207.5381,16.1,12.97,47.84626,-54.09684
2021-07-20 13:09:01+00:00,207.7281,16.15,12.97,47.84626,-54.09684
2021-07-20 13:19:00+00:00,205.1514,16.18,13.29,47.84626,-54.09684
2021-07-20 13:29:00+00:00,203.0748,16.19,13.29,47.84626,-54.09684
2021-07-20 13:39:00+00:00,202.8148,16.19,13.29,47.84626,-54.09684
2021-07-20 13:49:00+00:00,202.9848,16.16,13.29,47.84626,-54.09684
2021-07-20 13:59:00+00:00,203.8814,16.13,13.29,47.84626,-54.09684
2021-07-20 14:09:00+00:00,202.7131,16.1,13.29,47.84626,-54.09684
2021-07-20 14:19:01+00:00,202.1431,16.1,13.21,47.84626,-54.09684
2021-07-20 14:29:01+00:00,202.3331,16.11,13.21,47.84626,-54.09684
2021-07-20 14:39:01+00:00,201.7864,16.11,13.21,47.84626,-54.09684
2021-07-20 14:49:01+00:00,201.4631,16.1,13.21,47.84626,-54.09684
2021-07-20 14:59:01+00:00,201.7531,16.1,13.21,47.84626,-54.09684
2021-07-20 15:09:01+00:00,203.1814,16.1,13.21,47.84626,-54.09684
2021-07-20 15:19:01+00:00,205.0281,16.1,13.05,47.84626,-54.09684
2021-07-20 15:29:01+00:00,207.1031,16.1,13.05,47.84626,-54.09684
2021-07-20 15:39:01+00:00,212.0331,16.09,13.05,47.84626,-54.09684
2021-07-20 15:49:01+00:00,216.1331,16.07,13.05,47.84626,-54.09684
2021-07-20 15:59:01+00:00,220.5848,16.04,13.05,47.84626,-54.09684
2021-07-20 16:09:01+00:00,224.8564,16.03,13.05,47.84626,-54.09684
2021-07-20 16:19:01+00:00,227.5114,16.0,13.29,47.84626,-54.09684
2021-07-20 16:29:01+00:00,230.2881,16.0,13.29,47.84626,-54.09684
2021-07-20 16:39:01+00:00,236.5664,16.0,13.29,47.84626,-54.09684
2021-07-20 16:49:01+00:00,242.9731,16.0,13.29,47.84626,-54.09684
2021-07-20 16:59:01+00:00,248.3947,16.0,13.29,47.84626,-54.09684
2021-07-20 17:09:01+00:00,255.8298,15.99,13.29,47.84626,-54.09684
2021-07-20 17:19:01+00:00,265.2897,15.96,13.44,47.84626,-54.09684
2021-07-20 17:29:01+00:00,272.5698,15.94,13.44,47.84626,-54.09684
2021-07-20 17:39:01+00:00,280.8063,15.9,13.44,47.84626,-54.09684
2021-07-20 17:49:01+00:00,288.123,15.9,13.44,47.84626,-54.09684
2021-07-20 17:59:01+00:00,297.7597,15.9,13.44,47.84626,-54.09684
2021-07-20 18:09:01+00:00,304.8196,15.9,13.44,47.84626,-54.09684
2021-07-20 18:19:01+00:00,310.758,15.89,13.53,47.84626,-54.09684
2021-07-20 18:29:01+00:00,317.2413,15.88,13.53,47.84626,-54.09684
2021-07-20 18:39:01+00:00,325.5781,15.89,13.53,47.84626,-54.09684
2021-07-20 18:49:01+00:00,330.8997,15.9,13.53,47.84626,-54.09684
2021-07-20 18:59:01+00:00,333.4562,15.93,13.53,47.84626,-54.09684
2021-07-20 19:09:01+00:00,337.4214,15.98,13.53,47.84626,-54.09684
2021-07-20 19:19:01+00:00,341.4697,15.9,13.44,47.84626,-54.09684
2021-07-20 19:29:01+00:00,346.5163,15.8,13.44,47.84626,-54.09684
2021-07-20 19:39:01+00:00,352.5164,15.6,13.44,47.84626,-54.09684
2021-07-20 19:49:01+00:00,354.468,15.5,13.44,47.84626,-54.09684
2021-07-20 19:59:01+00:00,352.2713,15.5,13.44,47.84626,-54.09684
2021-07-20 20:09:01+00:00,353.2913,15.59,13.44,47.84626,-54.09684
2021-07-20 20:19:01+00:00,352.6447,15.6,13.21,47.84626,-54.09684
2021-07-20 20:29:01+00:00,354.4746,15.6,13.21,47.84626,-54.09684
2021-07-20 20:39:01+00:00,355.1497,15.6,13.21,47.84626,-54.09684
2021-07-20 20:49:01+00:00,360.0063,15.53,13.21,47.84626,-54.09684
2021-07-20 20:59:01+00:00,358.7812,15.58,13.21,47.84626,-54.09684
2021-07-20 21:09:01+00:00,352.528,15.71,13.21,47.84626,-54.09684
2021-07-20 21:19:01+00:00,356.1997,15.79,13.05,47.84626,-54.09684
2021-07-20 21:29:01+00:00,354.8712,15.79,13.05,47.84626,-54.09684
2021-07-20 21:39:01+00:00,349.1346,15.89,13.05,47.84626,-54.09684
2021-07-20 21:49:01+00:00,345.5213,15.95,13.05,47.84626,-54.09684
2021-07-20 21:59:01+00:00,345.213,15.88,13.05,47.84626,-54.09684
2021-07-20 22:09:01+00:00,339.4663,15.86,13.05,47.84626,-54.09684
2021-07-20 22:19:01+00:00,328.5296,15.98,12.81,47.84626,-54.09684
2021-07-20 22:29:01+00:00,323.413,15.98,12.81,47.84626,-54.09684
2021-07-20 22:39:01+00:00,321.2064,15.98,12.81,47.84626,-54.09684
2021-07-20 22:49:01+00:00,311.2463,15.99,12.81,47.84626,-54.09684
2021-07-20 22:59:01+00:00,303.5696,15.99,12.81,47.84626,-54.09684
2021-07-20 23:09:01+00:00,297.6897,15.99,12.81,47.84626,-54.09684
2021-07-20 23:19:01+00:00,287.6197,16.0,12.73,47.84626,-54.09684
2021-07-20 23:29:01+00:00,277.4531,16.1,12.73,47.84626,-54.09684
2021-07-20 23:39:01+00:00,273.8781,16.1,12.73,47.84626,-54.09684
2021-07-20 23:49:01+00:00,271.5098,16.1,12.73,47.84626,-54.09684
2021-07-20 23:59:01+00:00,262.4348,16.1,12.73,47.84626,-54.09684
